Location: ???? ???? ?????
(31.2680°N, 31.7283°E)
Time: 04:35:02
(UTC+00:00)

Cosmos 1725 Rocket - Pass Details

Date: 13 July 2020
Orbit: 963 x 990 km, 82.9° (Epoch: 11 August)

Event Time Altitude Azimuth Distance (km) Brightness Sun altitude
Exits shadow 23:36:24 68° 59° (ENE) 1,037 4.1 -32.2°
Drops below altitude 10° 23:42:06 10° 11° (N) 2,722 7.1 -31.6°
Sets 23:44:38 0° 9° (N) 3,676 8.0 -31.3°
